Waarnemingen

Advertentie
Mijn weer
La Coruna, Spanje (8001): temperatuur & dauwpunt: 11.11.2017 18:00:00 - 17.11.2017 18:00:00 (CET)La Coruna, Spanje (8001): windsnelheid: 11.11.2017 18:00:00 - 17.11.2017 18:00:00 (CET)La Coruna, Spanje (8001): windrichting: 11.11.2017 18:00:00 - 17.11.2017 18:00:00 (CET)La Coruna, Spanje (8001): luchtdruk: 11.11.2017 18:00:00 - 17.11.2017 18:00:00 (CET)La Coruna, Spanje (8001): zicht: 11.11.2017 18:00:00 - 17.11.2017 18:00:00 (CET)La Coruna, Spanje (8001): neerslag: 11.11.2017 18:00:00 - 17.11.2017 18:00:00 (CET)
Datum & Tijd tt [°C] td [°C] ff [km/u] ff [kn] dd ppp [hPa] vv [km] rr [mm]
17.11.2017 18:00:00 14,4 10,6 11 6 NO 1021,6 13 0,0
17.11.2017 17:00:00 15,1 10,7 11 6 NO 1021,3 13 0,0
17.11.2017 16:00:00 15,8 11,0 4 2 N 1021,5 25 -
17.11.2017 15:00:00 16,1 10,8 5 3 NNW 1021,8 15 0,0
17.11.2017 14:00:00 16,1 10,0 4 2 ONO 1022,2 16 0,0
17.11.2017 13:00:00 15,0 9,6 5 3 O 1022,8 25 -
17.11.2017 12:00:00 14,0 9,4 4 2 OZO 1023,4 13 0,0
17.11.2017 11:00:00 12,4 9,2 4 2 ZO 1023,4 12 0,0
17.11.2017 10:00:00 9,9 8,5 2 1 ZO 1023,6 20 -
17.11.2017 09:00:00 8,2 7,3 2 1 ZO 1023,6 10 0,0
17.11.2017 08:00:00 8,5 7,6 4 2 ZO 1023,1 9 0,0
17.11.2017 07:00:00 8,3 7,9 5 3 Z 1022,8 10 -
17.11.2017 06:00:00 8,2 7,9 5 3 ZZO 1022,9 9 0,0
17.11.2017 05:00:00 8,1 8,0 5 3 ZZO 1022,9 7 0,0
17.11.2017 04:00:00 8,6 8,5 2 1 ZZO 1023,0 4,4 -
17.11.2017 03:00:00 9,1 9,0 4 2 ZO 1023,0 0,8 0,0
17.11.2017 02:00:00 9,4 9,1 4 2 ZO 1023,2 0,9 0,0
17.11.2017 01:00:00 10,2 9,9 5 3 ZO 1023,3 0,8 -
17.11.2017 00:00:00 10,8 10,2 8 4 ZZO 1023,3 2,1 0,0
16.11.2017 23:00:00 11,3 10,0 5 3 O 1023,3 8 0,0
16.11.2017 22:00:00 11,9 10,3 9 5 ONO 1022,9 9 -
16.11.2017 21:00:00 12,4 10,8 8 4 ONO 1022,9 8 0,0
16.11.2017 20:00:00 12,7 10,8 5 3 NNO 1022,8 9 0,0
16.11.2017 19:00:00 13,0 11,1 4 2 NW 1022,4 18 -
16.11.2017 18:00:00 13,6 11,6 4 2 NO 1022,1 8 0,0
16.11.2017 17:00:00 14,0 11,9 11 6 N 1021,8 10 0,0
16.11.2017 16:00:00 14,3 12,3 9 5 NNW 1022,0 18 -
16.11.2017 15:00:00 14,4 11,7 8 4 NNW 1022,0 12 0,0
16.11.2017 14:00:00 14,6 11,0 8 4 N 1022,5 12 0,0
16.11.2017 13:00:00 15,5 9,4 5 3 ONO 1022,5 18 -
16.11.2017 12:00:00 14,4 7,4 4 2 O 1022,9 17 0,0
16.11.2017 11:00:00 11,3 6,4 8 4 ZZO 1022,8 14 0,0
16.11.2017 10:00:00 9,5 6,2 5 3 ZZO 1022,6 15 -
16.11.2017 09:00:00 8,0 5,5 8 4 ZZO 1022,1 12 0,0
16.11.2017 08:00:00 7,5 5,3 8 4 ZZO 1021,7 12 0,0
16.11.2017 07:00:00 7,2 5,5 5 3 ZZO 1021,4 11 -
16.11.2017 06:00:00 7,5 5,8 4 2 ZZO 1021,1 11 0,0
16.11.2017 05:00:00 7,6 6,2 5 3 ZZO 1020,7 10 0,0
16.11.2017 04:00:00 8,1 6,9 5 3 ZZO 1020,7 10 -
16.11.2017 03:00:00 8,3 7,2 8 4 ZZO 1020,7 9 0,0
16.11.2017 02:00:00 8,5 7,7 2 1 ZO 1020,6 6 0,0
16.11.2017 01:00:00 9,0 8,1 4 2 ZZO 1020,6 6 -
16.11.2017 00:00:00 9,7 8,6 4 2 Z 1020,6 6 0,0
15.11.2017 23:00:00 10,4 9,2 4 2 ZZO 1020,8 6 0,0
15.11.2017 22:00:00 11,3 9,7 4 2 ZZO 1020,8 7 -
15.11.2017 21:00:00 12,1 10,5 5 3 Z 1020,7 9 0,0
15.11.2017 20:00:00 12,4 10,6 4 2 ZZO 1020,5 8 0,0
15.11.2017 19:00:00 12,4 10,5 2 1 NNW 1020,5 20 -
15.11.2017 18:00:00 13,3 10,8 5 3 WNW 1020,3 12 0,0
15.11.2017 17:00:00 14,0 10,4 8 4 NNW 1020,0 14 0,0
15.11.2017 16:00:00 14,7 10,3 8 4 NNW 1019,6 25 -
15.11.2017 15:00:00 16,1 9,3 5 3 N 1019,6 15 0,0
15.11.2017 14:00:00 16,2 6,3 5 3 N 1019,9 18 0,0
15.11.2017 13:00:00 17,0 8,2 5 3 NO 1020,5 25 -
15.11.2017 12:00:00 16,0 7,7 4 2 O 1021,0 16 0,0
15.11.2017 11:00:00 13,9 7,9 4 2 ONO 1021,0 12 0,0
15.11.2017 10:00:00 11,3 6,4 0 0 N 1020,4 20 -
15.11.2017 09:00:00 9,8 5,2 9 5 Z 1020,2 12 0,0
15.11.2017 08:00:00 8,7 5,4 8 4 ZZO 1019,8 13 0,0
15.11.2017 07:00:00 9,1 5,5 5 3 ZZO 1019,3 13 -
15.11.2017 06:00:00 9,5 5,9 8 4 ZZO 1019,0 13 0,0
15.11.2017 05:00:00 9,3 5,8 4 2 ZO 1019,1 13 0,0
15.11.2017 04:00:00 9,4 5,9 8 4 ZZO 1019,3 13 -
15.11.2017 03:00:00 9,5 6,0 11 6 ZZO 1019,2 13 0,0
15.11.2017 02:00:00 9,5 6,2 5 3 ZO 1019,6 13 0,0
15.11.2017 01:00:00 9,6 6,1 2 1 O 1020,0 13 -
15.11.2017 00:00:00 9,9 6,6 8 4 ZO 1020,3 13 0,0
14.11.2017 23:00:00 10,6 7,1 9 5 ZO 1020,6 13 0,0
14.11.2017 22:00:00 11,0 7,9 5 3 O 1020,7 12 -
14.11.2017 21:00:00 11,6 8,3 8 4 O 1020,6 13 0,0
14.11.2017 20:00:00 12,2 8,3 5 3 O 1020,9 14 0,0
14.11.2017 19:00:00 13,0 8,7 9 5 ONO 1020,5 25 -
14.11.2017 18:00:00 13,9 8,1 11 6 ONO 1020,4 15 0,0
14.11.2017 17:00:00 14,4 7,4 5 3 NNO 1020,7 16 0,0
14.11.2017 16:00:00 14,8 6,9 5 3 NNO 1020,9 25 -
14.11.2017 15:00:00 15,8 6,8 8 4 NNO 1021,3 16 0,0
14.11.2017 14:00:00 15,3 6,0 8 4 NO 1022,2 17 0,0
14.11.2017 13:00:00 15,1 5,9 5 3 OZO 1023,2 25 -
14.11.2017 12:00:00 12,7 5,6 11 6 ONO 1024,0 16 0,0
14.11.2017 11:00:00 11,6 4,8 9 5 OZO 1024,6 15 0,0
14.11.2017 10:00:00 9,4 4,2 9 5 ZO 1024,7 25 -
14.11.2017 09:00:00 8,0 4,0 9 5 ZO 1024,7 13 0,0
14.11.2017 08:00:00 8,2 4,8 11 6 OZO 1024,7 13 0,0
14.11.2017 07:00:00 8,5 4,9 8 4 OZO 1024,7 13 -
14.11.2017 06:00:00 8,9 4,9 4 2 OZO 1025,1 14 0,0
14.11.2017 05:00:00 9,5 5,7 5 3 O 1024,7 13 0,0
14.11.2017 04:00:00 10,1 6,2 11 6 O 1025,1 13 -
14.11.2017 03:00:00 10,1 5,9 13 7 NO 1025,5 13 0,0
14.11.2017 02:00:00 9,6 6,1 9 5 O 1025,7 13 0,0
14.11.2017 01:00:00 9,5 6,2 8 4 ONO 1026,1 12 -
14.11.2017 00:00:00 10,1 6,2 11 6 O 1026,6 13 0,0
13.11.2017 23:00:00 10,5 5,9 9 5 O 1027,1 13 0,0
13.11.2017 22:00:00 11,0 5,7 13 7 ONO 1027,1 13 -
13.11.2017 21:00:00 11,3 5,8 13 7 NO 1027,1 13 0,0
13.11.2017 20:00:00 11,7 6,4 16 9 ONO 1027,3 14 0,0
13.11.2017 19:00:00 12,2 6,5 18 10 ONO 1027,1 15 -
13.11.2017 18:00:00 12,8 6,6 16 9 ONO 1026,6 13 0,0
13.11.2017 17:00:00 13,6 7,6 18 10 ONO 1026,4 14 0,0
13.11.2017 16:00:00 14,0 7,7 18 10 ONO 1026,3 25 -
13.11.2017 15:00:00 14,7 7,3 21 11 ONO 1026,6 15 0,0
13.11.2017 14:00:00 14,7 6,8 24 13 NO 1027,3 15 0,0
13.11.2017 13:00:00 14,6 7,2 22 12 ONO 1027,8 25 -
13.11.2017 12:00:00 14,1 8,3 13 7 ONO 1028,3 14 0,0
13.11.2017 11:00:00 13,2 8,3 13 7 ONO 1028,4 12 0,0
13.11.2017 10:00:00 12,3 8,4 11 6 O 1028,0 22 -
13.11.2017 09:00:00 11,0 8,4 11 6 O 1027,8 11 0,0
13.11.2017 08:00:00 11,1 8,7 11 6 ONO 1027,3 10 0,0
13.11.2017 07:00:00 11,5 9,2 13 7 ONO 1027,1 9 -
13.11.2017 06:00:00 11,9 9,6 11 6 NO 1027,0 11 0,0
13.11.2017 05:00:00 12,4 10,3 13 7 ONO 1027,1 10 0,0
13.11.2017 04:00:00 12,4 10,8 16 9 NO 1027,1 10 -
13.11.2017 03:00:00 12,7 11,4 15 8 NO 1026,9 10 0,0
13.11.2017 02:00:00 13,3 12,4 16 9 NO 1026,8 9 0,0
13.11.2017 01:00:00 13,5 13,0 13 7 NO 1026,7 10 -
13.11.2017 00:00:00 13,8 13,5 5 3 N 1026,6 7 0,0
12.11.2017 23:00:00 13,7 13,4 4 2 N 1026,5 3,8 0,2
12.11.2017 22:00:00 13,6 13,3 2 1 WNW 1026,3 9 -
12.11.2017 21:00:00 13,7 13,4 4 2 WZW 1026,0 11 0,2
12.11.2017 20:00:00 13,8 13,5 4 2 W 1026,1 6 0,0
12.11.2017 19:00:00 13,8 13,5 4 2 W 1025,6 1,5 -
12.11.2017 18:00:00 14,0 13,5 8 4 NW 1025,3 9 0,0
12.11.2017 17:00:00 14,4 13,9 16 9 W 1025,3 4,5 1,0
12.11.2017 16:00:00 15,5 14,5 9 5 W 1025,1 12 -
12.11.2017 15:00:00 15,1 14,5 13 7 W 1025,2 11 0,2
12.11.2017 14:00:00 14,9 13,9 16 9 WZW 1025,6 1,7 0,8
12.11.2017 13:00:00 15,1 13,5 16 9 WZW 1025,8 5 -
12.11.2017 12:00:00 15,2 13,0 13 7 WZW 1026,4 12 0,0
12.11.2017 11:00:00 14,7 12,0 16 9 WZW 1026,4 13 0,0
12.11.2017 10:00:00 14,2 11,7 11 6 WZW 1026,7 10 -
12.11.2017 09:00:00 13,6 12,0 13 7 ZW 1026,7 12 0,0
12.11.2017 08:00:00 13,4 12,1 11 6 WZW 1027,0 12 0,0
12.11.2017 07:00:00 13,2 12,1 11 6 WZW 1027,1 11 -
12.11.2017 06:00:00 13,5 11,5 11 6 WZW 1027,3 4,8 0,0
12.11.2017 05:00:00 13,4 11,3 8 4 ZW 1027,3 13 0,0
12.11.2017 04:00:00 13,3 12,2 9 5 WZW 1027,7 10 -
12.11.2017 03:00:00 13,6 11,8 9 5 W 1028,0 12 0,0
12.11.2017 02:00:00 13,4 12,0 13 7 WZW 1028,4 12 0,0
12.11.2017 01:00:00 13,3 12,2 8 4 WZW 1029,0 12 -
12.11.2017 00:00:00 13,1 12,3 4 2 ZZW 1029,3 11 0,2
11.11.2017 23:00:00 13,1 12,5 11 6 WNW 1030,0 6 0,0
11.11.2017 22:00:00 13,6 12,7 8 4 W 1030,0 3,1 -
11.11.2017 21:00:00 13,7 12,3 4 2 W 1029,8 12 0,0
11.11.2017 20:00:00 13,8 12,2 5 3 WZW 1030,0 14 0,0
11.11.2017 19:00:00 13,9 12,5 5 3 W 1030,0 25 -
11.11.2017 18:00:00 14,2 12,6 2 1 WNW 1030,1 13 0,0

tt = temperatuur
td = dauwpunt
ff = windsnelheid
dd = windrichting
ppp = luchtdruk
vv = zicht
rr = neerslag

Weerstations in de omgeving